Location: Cabrera Baja
(40.4089°N, 4.3354°W)
Time: 03:26:48
(UTC+00:00)

Cosmos 2123 Rocket - Pass Details

Date: 14 July 2020
Orbit: 960 x 993 km, 82.9° (Epoch: 03 August)

Event Time Altitude Azimuth Distance (km) Brightness Sun altitude
Rises 00:45:02 0° 349° (N) 3,656 8.1 -27.8°
Reaches altitude 10° 00:47:34 10° 346° (NNW) 2,704 7.2 -27.7°
Maximum altitude 00:53:39 63° 267° (W) 1,069 4.0 -27.6°
Enters shadow 00:54:00 61° 249° (WSW) 1,079 4.0 -27.5°
